Content
SEND FEEDBACK

Daily
Averages
Monthly
Summary
French Polynesia

PAPEETE, FRENCH POLYNESIA


Home > Oceania > French Polynesia
Elevation: 7 feet     Latitude: 17 33S     Longitude: 149 36W

WEATHER
 
SELECT A DAY
Number of Records: 208,843;   Date Range: 6/30/96 - 9/21/14
 
SHARE

PRINT THIS DATA

[ ← Previous Day ]
WEATHER ALMANAC - FEBRUARY 9, 2013
[ Next Day → ]
[ °C ]   °F
Weather ElementAverageHighLow
Temperature83.2 °F87.8 °F (12:00 pm)78.8 °F (2:00 am)
Dewpoint73.4 °F75.2 °F (2:00 am)71.6 °F (5:30 am)
Humidity71.6 %89 % (2:00 am)55 % (2:00 pm)
Barometer29.90 in29.95 in (9:30 pm)29.86 in (2:00 am)
Wind Speed5.9 mph9.2 mph (3:00 pm)
Weather ElementAverage
Visibility8 mi
Wind DirectionENE (53.9 °)

Weather ElementTotal
Precipitation---
Cooling Degree Days18.3 (Base 65)
Growing Degree Days33.3 (Base 50)
Averaged from 51 records on February 9, 2013
WEATHER CONDITIONS BREAKOUT
WIND DIRECTION BREAKOUT
WEATHER BY HOUR - FEBRUARY 9, 2013
[ °C ]   °F
Local TimeTemperatureDewpointHumidityBarometerVisibilityWind DirectionWind SpeedGust SpeedPrecipitationEventsConditions
2:00 AM78.8 °F75.2 °F89 %29.86 in6.2 miENE (70°)3.5 mphPartly Cloudy
2:30 AM78.8 °F75.2 °F89 %29.86 in6.2 miENE (70°)4.6 mphPartly Cloudy
3:00 AM78.8 °F75.2 °F89 %29.86 in6.2 miEast (80°)5.8 mphScattered Clouds
3:30 AM78.8 °F73.4 °F83 %29.86 in6.2 miENE (70°)3.5 mphOvercast
4:00 AM78.8 °F73.4 °F83 %29.86 in6.2 miEast (80°)4.6 mphMostly Cloudy
4:30 AM78.8 °F73.4 °F83 %29.86 in6.2 miVariable3.5 mphMostly Cloudy
5:00 AM78.8 °F73.4 °F83 %29.86 in6.2 miEast (80°)4.6 mphPartly Cloudy
5:00 AM79.0 °F73.0 °F76 %29.88 in37.0 miEast (80°)4.6 mphClear
5:30 AM78.8 °F71.6 °F78 %29.89 in6.2 miEast (80°)4.6 mphPartly Cloudy
6:00 AM78.8 °F71.6 °F78 %29.89 in6.2 miEast (100°)4.6 mphMostly Cloudy
6:30 AM78.8 °F73.4 °F83 %29.89 in6.2 miEast (90°)4.6 mphMostly Cloudy
7:00 AM80.6 °F73.4 °F79 %29.92 in6.2 miENE (70°)3.5 mphMostly Cloudy
7:30 AM82.4 °F73.4 °F74 %29.92 in6.2 miEast (80°)4.6 mphMostly Cloudy
8:00 AM84.0 °F73.0 °F62 %29.93 in19.0 miNE (50°)4.6 mphPartly Cloudy
8:00 AM84.2 °F73.4 °F70 %29.92 in6.2 miNE (50°)4.6 mphScattered Clouds
8:30 AM84.2 °F73.4 °F70 %29.92 in6.2 miNE (50°)6.9 mphScattered Clouds
9:00 AM86.0 °F73.4 °F66 %29.92 in6.2 miNNE (30°)6.9 mphScattered Clouds
9:30 AM86.0 °F73.4 °F66 %29.92 in6.2 miNNE (30°)6.9 mphScattered Clouds
10:00 AM86.0 °F75.2 °F70 %29.92 in6.2 miNE (40°)6.9 mphScattered Clouds
10:30 AM86.0 °F75.2 °F70 %29.92 in6.2 miNE (40°)6.9 mphScattered Clouds
11:00 AM86.0 °F74.0 °F61 %29.93 in19.0 miNNE (30°)6.9 mphScattered Clouds
11:00 AM86.0 °F75.2 °F70 %29.92 in6.2 miNNE (30°)6.9 mphScattered Clouds
11:30 AM86.0 °F75.2 °F70 %29.92 in6.2 miNE (40°)8.1 mphScattered Clouds
12:00 PM87.8 °F73.4 °F62 %29.89 in6.2 miNNE (30°)6.9 mphScattered Clouds
12:30 PM87.8 °F75.2 °F66 %29.89 in6.2 miNNE (30°)6.9 mphScattered Clouds
1:00 PM87.8 °F75.2 °F66 %29.89 in6.2 miNNE (20°)8.1 mphScattered Clouds
1:30 PM87.8 °F75.2 °F66 %29.89 in6.2 miNNE (20°)8.1 mphScattered Clouds
2:00 PM87.0 °F73.0 °F55 %29.88 in19.0 miNNE (20°)8.1 mphScattered Clouds
2:00 PM87.8 °F73.4 °F62 %29.86 in6.2 miNNE (20°)8.1 mphScattered Clouds
2:30 PM87.8 °F73.4 °F62 %29.86 in6.2 miNNE (20°)8.1 mphScattered Clouds
3:00 PM87.8 °F75.2 °F66 %29.86 in6.2 miNNE (20°)9.2 mphScattered Clouds
3:30 PM87.8 °F73.4 °F62 %29.86 in6.2 miNNE (20°)8.1 mphScattered Clouds
4:00 PM87.8 °F73.4 °F62 %29.86 in6.2 miNNE (20°)6.9 mphScattered Clouds
4:30 PM86.0 °F75.2 °F70 %29.86 in6.2 miNNE (30°)6.9 mphScattered Clouds
5:00 PM86.0 °F74.0 °F59 %29.87 in19.0 miNNE (30°)6.9 mphScattered Clouds
5:00 PM86.0 °F73.4 °F66 %29.86 in6.2 miNNE (30°)6.9 mphScattered Clouds
5:30 PM84.2 °F73.4 °F70 %29.86 in6.2 miNNE (30°)5.8 mphScattered Clouds
6:00 PM84.2 °F73.4 °F70 %29.86 in6.2 miNNE (30°)6.9 mphScattered Clouds
6:30 PM84.2 °F73.4 °F70 %29.89 in6.2 miNE (40°)5.8 mphMostly Cloudy
7:00 PM82.4 °F73.4 °F74 %29.89 in6.2 miENE (60°)4.6 mphMostly Cloudy
7:30 PM82.4 °F73.4 °F74 %29.92 in6.2 miEast (80°)4.6 mphMostly Cloudy
8:00 PM81.0 °F72.0 °F66 %29.93 in12.0 miEast (80°)4.6 mphScattered Clouds
8:00 PM80.6 °F71.6 °F74 %29.92 in6.2 miEast (80°)4.6 mphMostly Cloudy
8:30 PM80.6 °F71.6 °F74 %29.92 in6.2 miEast (90°)4.6 mphMostly Cloudy
9:00 PM80.6 °F71.6 °F74 %29.92 in6.2 miEast (90°)4.6 mphMostly Cloudy
9:30 PM80.6 °F71.6 °F74 %29.95 in6.2 miEast (90°)6.9 mphMostly Cloudy
10:00 PM80.6 °F71.6 °F74 %29.95 in6.2 miEast (80°)4.6 mphMostly Cloudy
10:30 PM80.6 °F71.6 °F74 %29.95 in6.2 miEast (90°)5.8 mphMostly Cloudy
11:00 PM80.0 °F72.0 °F69 %29.95 in12.0 miEast (90°)5.8 mphScattered Clouds
11:00 PM80.6 °F71.6 °F74 %29.95 in6.2 miEast (90°)5.8 mphMostly Cloudy
11:30 PM80.6 °F71.6 °F74 %29.92 in6.2 miEast (80°)5.8 mphScattered Clouds
Hourly data recorded from NTAA, located miles away from Papeete, French Polynesia







STORIES FROM OUR PARTNERS